TimeEDT,TemperatureF,Dew PointF,Humidity,Sea Level PressureIn,VisibilityMPH,Wind Direction,Wind SpeedMPH,Gust SpeedMPH,PrecipitationIn,Events,Conditions,WindDirDegrees,DateUTC
12:15 AM,64.4,64.4,100,30.15,7.0,Calm,Calm,-,N/A,,Clear,0,2013-09-10 04:15:00
12:35 AM,64.4,64.4,100,30.14,7.0,Calm,Calm,-,N/A,,Clear,0,2013-09-10 04:35:00
12:55 AM,62.6,60.8,94,30.15,7.0,Calm,Calm,-,N/A,,Clear,0,2013-09-10 04:55:00
1:15 AM,62.6,62.6,100,30.15,7.0,Calm,Calm,-,N/A,,Clear,0,2013-09-10 05:15:00
1:35 AM,62.6,60.8,94,30.15,7.0,Calm,Calm,-,N/A,,Clear,0,2013-09-10 05:35:00
1:55 AM,60.8,59.0,94,30.15,7.0,Calm,Calm,-,N/A,,Clear,0,2013-09-10 05:55:00
2:15 AM,60.8,59.0,94,30.15,5.0,Calm,Calm,-,N/A,,Clear,0,2013-09-10 06:15:00
2:35 AM,60.8,57.2,88,30.15,7.0,Calm,Calm,-,N/A,,Clear,0,2013-09-10 06:35:00
2:55 AM,60.8,59.0,94,30.15,5.0,Calm,Calm,-,N/A,,Clear,0,2013-09-10 06:55:00
3:15 AM,60.8,59.0,94,30.15,5.0,Calm,Calm,-,N/A,,Clear,0,2013-09-10 07:15:00
3:35 AM,60.8,57.2,88,30.15,7.0,Calm,Calm,-,N/A,,Clear,0,2013-09-10 07:35:00
3:55 AM,59.0,57.2,94,30.15,7.0,Calm,Calm,-,N/A,,Clear,0,2013-09-10 07:55:00
4:15 AM,60.8,57.2,88,30.15,7.0,Calm,Calm,-,N/A,,Clear,0,2013-09-10 08:15:00
4:35 AM,60.8,57.2,88,30.16,7.0,Calm,Calm,-,N/A,,Clear,0,2013-09-10 08:35:00
4:55 AM,60.8,59.0,94,30.16,7.0,Calm,Calm,-,N/A,,Clear,0,2013-09-10 08:55:00
5:15 AM,60.8,59.0,94,30.17,5.0,Calm,Calm,-,N/A,,Clear,0,2013-09-10 09:15:00
5:35 AM,60.8,57.2,88,30.17,5.0,Calm,Calm,-,N/A,,Clear,0,2013-09-10 09:35:00
5:55 AM,59.0,55.4,88,30.17,5.0,Calm,Calm,-,N/A,,Clear,0,2013-09-10 09:55:00
6:15 AM,60.8,55.4,82,30.17,5.0,Calm,Calm,-,N/A,,Clear,0,2013-09-10 10:15:00
6:35 AM,60.8,44.6,55,30.18,5.0,Calm,Calm,-,N/A,,Clear,0,2013-09-10 10:35:00
6:55 AM,60.8,35.6,39,30.19,5.0,Calm,Calm,-,N/A,,Clear,0,2013-09-10 10:55:00
7:15 AM,59.0,44.6,59,30.19,5.0,Calm,Calm,-,N/A,,Clear,0,2013-09-10 11:15:00
7:35 AM,59.0,44.6,59,30.20,4.0,Calm,Calm,-,N/A,,Clear,0,2013-09-10 11:35:00
7:55 AM,60.8,44.6,55,30.20,5.0,Calm,Calm,-,N/A,,Clear,0,2013-09-10 11:55:00
8:15 AM,60.8,42.8,52,30.21,7.0,North,3.5,-,N/A,,Clear,10,2013-09-10 12:15:00
8:35 AM,62.6,44.6,52,30.21,7.0,North,3.5,-,N/A,,Clear,10,2013-09-10 12:35:00
8:55 AM,64.4,48.2,56,30.22,10.0,NE,3.5,-,N/A,,Clear,40,2013-09-10 12:55:00
9:15 AM,68.0,46.4,46,30.23,10.0,NNE,3.5,-,N/A,,Clear,30,2013-09-10 13:15:00
9:35 AM,69.8,46.4,43,30.23,10.0,Calm,Calm,-,N/A,,Clear,0,2013-09-10 13:35:00
9:55 AM,69.8,28.4,21,30.23,10.0,NE,5.8,-,N/A,,Clear,50,2013-09-10 13:55:00
10:15 AM,71.6,32.0,23,30.24,10.0,NNE,3.5,-,N/A,,Clear,30,2013-09-10 14:15:00
10:35 AM,73.4,-9999,N/A,30.24,10.0,Calm,Calm,-,N/A,,Clear,0,2013-09-10 14:35:00
10:55 AM,75.2,33.8,22,30.24,10.0,NE,5.8,-,N/A,,Clear,50,2013-09-10 14:55:00
11:15 AM,77.0,68.0,74,30.23,10.0,NNE,4.6,-,N/A,,Clear,20,2013-09-10 15:15:00
11:35 AM,77.0,68.0,74,30.23,10.0,Calm,Calm,-,N/A,,Scattered Clouds,0,2013-09-10 15:35:00
11:55 AM,77.0,66.2,69,30.23,10.0,ENE,5.8,-,N/A,,Scattered Clouds,60,2013-09-10 15:55:00
12:15 PM,78.8,62.6,57,30.22,10.0,NNE,3.5,-,N/A,,Scattered Clouds,20,2013-09-10 16:15:00
12:35 PM,78.8,68.0,69,30.22,10.0,Calm,Calm,-,N/A,,Mostly Cloudy,0,2013-09-10 16:35:00
12:55 PM,80.6,68.0,65,30.21,10.0,East,3.5,-,N/A,,Scattered Clouds,90,2013-09-10 16:55:00
1:15 PM,80.6,66.2,61,30.21,10.0,East,5.8,-,N/A,,Clear,90,2013-09-10 17:15:00
1:35 PM,82.4,69.8,66,30.21,10.0,ESE,4.6,-,N/A,,Clear,110,2013-09-10 17:35:00
1:55 PM,82.4,68.0,62,30.21,10.0,SE,5.8,-,N/A,,Clear,130,2013-09-10 17:55:00
2:15 PM,82.4,69.8,66,30.20,10.0,East,4.6,-,N/A,,Scattered Clouds,80,2013-09-10 18:15:00
2:35 PM,80.6,69.8,70,30.19,10.0,Calm,Calm,-,N/A,,Scattered Clouds,0,2013-09-10 18:35:00
2:55 PM,84.2,68.0,58,30.19,10.0,ESE,5.8,-,N/A,,Scattered Clouds,120,2013-09-10 18:55:00
3:15 PM,84.2,68.0,58,30.18,10.0,ESE,3.5,-,N/A,,Clear,110,2013-09-10 19:15:00
3:35 PM,86.0,68.0,55,30.18,10.0,East,3.5,-,N/A,,Clear,80,2013-09-10 19:35:00
3:55 PM,86.0,69.8,58,30.17,10.0,ENE,5.8,-,N/A,,Clear,60,2013-09-10 19:55:00
4:15 PM,86.0,69.8,58,30.16,10.0,ESE,6.9,-,N/A,,Clear,110,2013-09-10 20:15:00
4:35 PM,87.8,71.6,58,30.16,10.0,East,4.6,-,N/A,,Clear,90,2013-09-10 20:35:00
4:55 PM,87.8,71.6,58,30.16,10.0,ENE,5.8,-,N/A,,Clear,70,2013-09-10 20:55:00
5:15 PM,87.8,71.6,58,30.15,10.0,East,3.5,-,N/A,,Clear,100,2013-09-10 21:15:00
5:35 PM,86.0,73.4,66,30.15,10.0,ESE,4.6,-,N/A,,Scattered Clouds,110,2013-09-10 21:35:00
5:55 PM,86.0,73.4,66,30.16,10.0,Calm,Calm,-,N/A,,Scattered Clouds,0,2013-09-10 21:55:00
6:15 PM,86.0,73.4,66,30.15,10.0,Calm,Calm,-,N/A,,Clear,0,2013-09-10 22:15:00
6:35 PM,84.2,73.4,70,30.16,10.0,Calm,Calm,-,N/A,,Clear,0,2013-09-10 22:35:00
6:55 PM,82.4,73.4,74,30.16,10.0,Calm,Calm,-,N/A,,Clear,0,2013-09-10 22:55:00
7:15 PM,82.4,75.2,79,30.16,10.0,Calm,Calm,-,N/A,,Clear,0,2013-09-10 23:15:00
7:35 PM,78.8,75.2,89,30.17,10.0,Calm,Calm,-,N/A,,Clear,0,2013-09-10 23:35:00
7:55 PM,77.0,75.2,94,30.17,10.0,Calm,Calm,-,N/A,,Clear,0,2013-09-10 23:55:00
8:15 PM,77.0,73.4,89,30.17,10.0,Calm,Calm,-,N/A,,Clear,0,2013-09-11 00:15:00
8:35 PM,73.4,73.4,100,30.18,10.0,Calm,Calm,-,N/A,,Clear,0,2013-09-11 00:35:00
8:55 PM,71.6,71.6,100,30.19,7.0,Calm,Calm,-,N/A,,Clear,0,2013-09-11 00:55:00
9:15 PM,71.6,71.6,100,30.19,7.0,Calm,Calm,-,N/A,,Clear,0,2013-09-11 01:15:00
9:35 PM,69.8,69.8,100,30.20,7.0,Calm,Calm,-,N/A,,Clear,0,2013-09-11 01:35:00
9:55 PM,68.0,68.0,100,30.21,5.0,Calm,Calm,-,N/A,,Clear,0,2013-09-11 01:55:00
10:15 PM,68.0,68.0,100,30.21,5.0,Calm,Calm,-,N/A,,Clear,0,2013-09-11 02:15:00
10:35 PM,66.2,60.8,83,30.21,5.0,Calm,Calm,-,N/A,,Clear,0,2013-09-11 02:35:00
10:55 PM,64.4,59.0,83,30.21,5.0,Calm,Calm,-,N/A,,Clear,0,2013-09-11 02:55:00
11:15 PM,64.4,64.4,100,30.21,4.0,Calm,Calm,-,N/A,,Clear,0,2013-09-11 03:15:00
11:35 PM,64.4,64.4,100,30.21,5.0,Calm,Calm,-,N/A,,Clear,0,2013-09-11 03:35:00
11:55 PM,62.6,62.6,100,30.21,5.0,Calm,Calm,-,N/A,,Clear,0,2013-09-11 03:55:00